Regional Weather Roundup
Issued by NWS Sioux Falls, SD

Home | Current Version | Previous Version | Graphics & Text | Print | Product List | Glossary Off
Versions: 1 2 3 4 5 6 7 8 9 10 11 12 13 14 15 16 17 18 19 20 21 22 23 24 25 26 27 28 29 30 31 32 33 34 35 36 37 38 39 40 41 42 43 44 45 46 47 48 49 50

000
ASUS43 KFSD 041510
RWRFSD

WEATHER ROUNDUP FOR SE SOUTH DAKOTA/SW MINNESOTA/NW IOWA
NATIONAL WEATHER SERVICE SIOUX FALLS SD
1000 AM CDT SAT JUL 04 2015

NOTE: "FAIR" INDICATES FEW OR NO CLOUDS BELOW 12,000 FEET WITH NO
SIGNIFICANT WEATHER AND OR OBSTRUCTIONS TO VISIBILITY.


SDZ038>040-050-052>070-041600-
SOUTHEAST SOUTH DAKOTA

CITY           SKY/WX    TMP DP  RH WIND       PRES   REMARKS
BROOKINGS      SUNNY     72  64  78 SW7       29.97S
CHAMBERLAIN    MOSUNNY   73  65  77 S7        29.89S
HURON          MOSUNNY   71  66  84 SE8       29.89F
MADISON        FAIR      72  68  88 S10       29.96F
MITCHELL       MOSUNNY   73  66  78 S10       29.92F
SIOUX FALLS    SUNNY     73  64  73 SW7       29.96F
WINNER         FAIR      77  60  55 S14       29.89S
YANKTON        MOSUNNY   73  64  73 SW7       29.94F
$$

MNZ071-072-080-081-089-090-097-098-041600-
SOUTHWEST MINNESOTA

CITY           SKY/WX    TMP DP  RH WIND       PRES   REMARKS
FAIRMONT       SUNNY     72  57  60 SW3       29.98S
JACKSON        SUNNY     72  63  73 SW7       29.99S
LUVERNE        SUNNY     72  64  78 S5        29.98F
MARSHALL       SUNNY     77  64  65 SW8         N/A
MONTEVIDEO     SUNNY     79  72  78 W5        29.94S
PIPESTONE      SUNNY     72  64  78 SW7       29.98R
REDWOOD FALLS  SUNNY     76  66  71 SW5       29.94S
TRACY          SUNNY     76  66  72 SW7       29.96S
WINDOM         SUNNY     73  63  68 SW6       29.97F
WORTHINGTON    SUNNY     72  63  73 SW7       29.98F
$$

IAZ001>003-012>014-020>022-031-032-NEZ013-014-SDZ071-041600-
NORTHWEST IOWA

CITY           SKY/WX    TMP DP  RH WIND       PRES   REMARKS
CHEROKEE       SUNNY     70  65  86 SW3       29.99F
DENISON        SUNNY     70  61  73 VRB3      30.00S
ESTHERVILLE    SUNNY     71  61  70 SW6       29.99S
LE MARS        SUNNY     70  66  88 SW7       29.99S
ORANGE CITY    SUNNY     68  61  77 S6        29.99S
SHELDON        SUNNY     72  72 100 SW7       29.98S
SIOUX CITY     SUNNY     70  63  78 S5        29.98S
SPENCER        SUNNY     74  61  63 W8        29.99F
STORM LAKE     SUNNY     72  63  73 SW7       30.01S
$$

ABBREVIATIONS USED IN REMARKS
   TC - TEMPERATURE IN CELSIUS
  WCI - WIND CHILL INDEX
   HX - HEAT INDEX
  VSB - VISIBILITY



USA.gov is the U.S. government's official web portal to all federal, state and local government web resources and services.